This is the latest recevied weather packets stored in our database for station/object IU1TLK-10. If no packets are shown the sender has not sent any weather packets the latest 10 day(s).
| Time | Temp. | Humidity | Pressure | Rain* | Wind** | Luminosity | Snow |
|---|---|---|---|---|---|---|---|
| 1788565784 | 22.22° C | 60% | 1019.5 hPa | - | - | - | - |
| 1788563984 | 22.78° C | 59% | 1019.3 hPa | - | - | - | - |
| 1788562183 | 22.78° C | 59% | 1019.4 hPa | - | - | - | - |
| 1788560383 | 23.33° C | 58% | 1019.3 hPa | - | - | - | - |
| 1788558583 | 23.33° C | 59% | 1019.2 hPa | - | - | - | - |
| 1788556782 | 23.89° C | 57% | 1019.3 hPa | - | - | - | - |
| 1788554982 | 23.89° C | 54% | 1019.3 hPa | - | - | - | - |
| 1788553182 | 24.44° C | 53% | 1019.5 hPa | - | - | - | - |
| 1788551381 | 24.44° C | 52% | 1019.4 hPa | - | - | - | - |
| 1788549583 | 25° C | 51% | 1019 hPa | - | - | - | - |
| 1788547783 | 25.56° C | 50% | 1018.7 hPa | - | - | - | - |
| 1788545983 | 26.11° C | 49% | 1018.4 hPa | - | - | - | - |
| 1788544182 | 26.67° C | 48% | 1018.2 hPa | - | - | - | - |
| 1788542382 | 27.22° C | 46% | 1017.9 hPa | - | - | - | - |
| 1788540582 | 27.78° C | 44% | 1018 hPa | - | - | - | - |
| 1788538782 | 27.78° C | 39% | 1018 hPa | - | - | - | - |
| 1788536981 | 28.33° C | 35% | 1018.3 hPa | - | - | - | - |
| 1788535181 | 28.33° C | 35% | 1018.4 hPa | - | - | - | - |
| 1788533381 | 28.89° C | 37% | 1018.7 hPa | - | - | - | - |
| 1788531581 | 28.89° C | 35% | 1018.8 hPa | - | - | - | - |
| 1788529780 | 28.89° C | 35% | 1019 hPa | - | - | - | - |
| 1788527982 | 28.89° C | 35% | 1019.5 hPa | - | - | - | - |
| 1788526182 | 28.89° C | 35% | 1019.7 hPa | - | - | - | - |
| 1788524382 | 28.89° C | 35% | 1020 hPa | - | - | - | - |
| 1788522581 | 28.89° C | 35% | 1020.3 hPa | - | - | - | - |
* Rain since midnight (hover to see other rain measurements)
** Current wind speed in m/s (hover to see current wind gust speed)